Regional Weather Roundup
Issued by NWS

Home | Current Version | Previous Version | Text Only | Print | Product List | Glossary On
Versions: 1 2 3 4 5 6 7 8 9 10 11 12 13 14 15 16 17 18 19 20 21 22 23 24 25 26 27 28 29 30 31 32 33 34 35 36 37 38 39 40 41 42 43 44 45 46 47 48 49 50
000
ASUS43 KTOP 201708
RWRKS

WEATHER ROUNDUP FOR KANSAS
NATIONAL WEATHER SERVICE GOODLAND KS
1200 PM CDT FRI OCT 20 2017

NOTE:  "FAIR" INDICATES FEW OR NO CLOUDS BELOW 12,000 FEET WITH NO
SIGNIFICANT WEATHER AND/OR OBSTRUCTIONS TO VISIBILITY.

KSZ001>006-013>018-027>032-041>047-201800-
NORTHWEST KANSAS

CITY           SKY/WX    TMP DP  RH WIND       PRES   REMARKS
GOODLAND       CLOUDY    64  52  64 S16       29.68F
HAYS           SUNNY     72  55  55 S25G36    29.78F
HILL CITY      SUNNY     70  54  56 S23G33    29.74F
RUSSELL        SUNNY     72  58  61 S28G40    29.79F
$$

KSZ061>065-074>080-084>089-201800-
SOUTHWEST KANSAS

CITY           SKY/WX    TMP DP  RH WIND       PRES   REMARKS
DODGE CITY     SUNNY     68  53  58 S26G40    29.83F
ELKHART          N/A     71  50  47 S20         N/A
GARDEN CITY    SUNNY     71  51  49 S29G38    29.78F
GREAT BEND     MOSUNNY   68  57  68 S25G36    29.83F
LIBERAL        CLOUDY    69  54  58 S28G33    29.82F
PRATT          MOSUNNY   66  56  69 S25G32    29.88F
$$

KSZ066>073-081>083-090>101-201800-
SOUTHEAST KANSAS

CITY           SKY/WX    TMP DP  RH WIND       PRES   REMARKS
CHANUTE        MOSUNNY   71  57  61 S17G31    30.05F
COFFEYVILLE    SUNNY     70  56  61 S14       30.05F
HUTCHINSON     SUNNY     73  60  63 S26G32    29.88F
MEDICINE LODGE   N/A     69  58  67 S16G26    29.89F
NEWTON         MOSUNNY   73  60  63 S25G36    29.92F
PARSONS        SUNNY     71  56  58 S13G21    30.06F
WICHITA INTL   MOSUNNY   75  61  61 S28G38    29.92F
WICHITA JABRA  SUNNY     74  61  63 S23G32    29.93F
WICHITA MCCONL SUNNY     74  58  57 S23G33    29.94F
WINFIELD       PTSUNNY   73  61  65 S21G28    29.99F
$$

KSZ007>012-019>026-033>040-048>060-102>105-201800-
NORTHEAST KANSAS

CITY           SKY/WX    TMP DP  RH WIND       PRES   REMARKS
CONCORDIA      SUNNY     71  57  61 S22G36    29.85F
EMPORIA        MOSUNNY   72  59  63 S22G32    29.98F
LAWRENCE       SUNNY     72  57  59 SE21G28   30.01F
MANHATTAN      PTSUNNY   74  59  59 S21G30    29.91F
MARYSVILLE     SUNNY     72  59  64 S18G28    29.90F
OLATHE IND     MOSUNNY   67  56  67 S16G24    30.05F
OLATHE EXE     CLOUDY    66  56  70 S14G22    30.06S
SALINA         MOSUNNY   74  60  61 S21G32    29.87F
TOPEKA BILLARD SUNNY     74  59  59 S17       29.97F
TOPEKA FORBES  SUNNY     74  59  59 S18G28    29.98F
$$



USA.gov is the U.S. government's official web portal to all federal, state and local government web resources and services.